Location: Étavigny
(49.1201°N, 2.9800°E)
Time: 23:28:23
(UTC+00:00)

SL-08 R/B - Pass Details

Date: 28 January 2023
Orbit: 947 x 992 km, 83.0° (Epoch: 01 April)

Event Time Altitude Azimuth Distance (km) Brightness Sun altitude
Rises 19:03:47 0° 351° (N) 3,662 7.6 -23.8°
Reaches altitude 10° 19:06:17 10° 353° (N) 2,718 6.9 -24.2°
Maximum altitude 19:12:31 76° 79° (E) 1,007 4.3 -25.2°
Enters shadow 19:17:37 16° 165° (SSE) 2,296 6.3 -26.0°
